Simultaneous Nadir Overpasses (SNOs) Predictions

Prediction of SNOs between NOAA-19 and NPP Satellite Orbit:

Table of predicted SNOs for the next 14.0 days since TLE Epoch: 8/31/2012
Index Date (NOAA-19) Time (NOAA-19) NOAA-19 Lat,Lon Date (NPP) Time (NPP) NPP Lat,Lon Distance(km) Time Diff (sec)
1 09/02/2012 16:23:20 -80.71, 65.91 09/02/2012 16:24:32 -80.71, 65.75 2.84 72
2 09/02/2012 17:14:28 80.71,-126.88 09/02/2012 17:15:17 80.71,-126.80 1.45 49
3 09/02/2012 18:05:23 -80.67, 41.12 09/02/2012 18:06:00 -80.67, 41.02 1.87 37
4 09/02/2012 18:56:31 80.67,-151.66 09/02/2012 18:56:45 80.67,-151.53 2.41 14
5 09/02/2012 19:47:25 -80.61, 16.67 09/02/2012 19:47:27 -80.61, 16.62 0.90 2
6 09/02/2012 20:38:30 80.55,-175.09 09/02/2012 20:38:10 80.56,-175.26 3.17 20
7 09/02/2012 21:29:26
